FENGYUN 1C DEB, 35208

Orbit data source: Space-Track

FENGYUN 1C DEB, 35208 is space debris in SSO originally from a launch on Mon, 10 May 1999 UTC launched from the Taiyaun Space Center, China (TSC). Fengyun 1C debris stems from the Chinese weather satellite Fengyun-1C, which was intentionally destroyed by a Chinese anti-satellite missile in 2007. This event dramatically increased the amount of space debris, with thousands of trackable fragments posing hazards to satellites and human spaceflight. The Fengyun 1C debris cloud has become a focal point in discussions about space sustainability and the need for international regulations to prevent the creation of new debris.

Loading next visibility...
Identifier
35208, 1999-025DPQ
Orbit
SSO
Country
Flag of CNCN / PRC
Related business
Manufacturer
Unknown
Mission
Spacecraft
Bus & Motor
Unknown
Mass
Unknown
Launch date (UTC)
1999-05-10 (27 years ago)
Launch vehicle
Unknown
Launch site
Taiyaun Space Center, China (TSC)
Object type
Payload
Rocket body
Debris
Shape & HBR
Unknown shape, 0.1 m
Radar Cross Section
Small (<0.1 m²)

Expand to show TLE details & history
Last TLE update: 17 hours ago

TLE from 17 hours ago
0 FENGYUN 1C DEB
1 35208U 99025DPQ 25346.81233292  .00001963  00000-0  13123-2 0  9994
2 35208  98.9030   6.0094 0101315 156.4473 204.1379 13.99657071905647
Epoch: 2025-12-12T19:29Z
TLE epoch observation values (Epoch: 2025-12-12T19:29:45.564Z)
Latitude
0.00002°
Longitude
-8.17904°
Altitude
965.245 km
Speed
7.335 km/s
True Right ascension
00h 24m 02s
True Declination
0° 00' 00"
Sunlit
Object was in daylight at epoch
Visualization orbit readout
Latitude
Unknown
Longitude
Unknown
Altitude
Unknown
Speed
Unknown
Apparent Right ascension
Unknown
Apparent Declination
Unknown
Sunlit
N/A
Visualization observer readout
Local Sidereal Time
10:40:53
Azimuth
Unknown
Elevation
Unknown
Doppler factor
Unknown
Orbital elements
Apogee altitude
965.837 km
Perigee altitude
818.518 km
Semi-major axis
7,270.315 km
Eccentricity
0.01013
Inclination
98.903°
RAAN
6.0094°
Arg. of periapsis
156.4473°
True anomaly
203.66857°
Mean anomaly
204.1379°
Eccentric anomaly
203.90269°
Mean motion
3.50117 °/min
Orbital period
102.82 mins
BSTAR
0.0013123
Loading maneuver chart data...
Computing Atmospheric mass density...

Documentation

Showing up to 5 results
|